Weather History for KMCI - February, 2014

Change the Weather History Date:

Thursday, February 13, 2014

  Actual Average Record
Temperature  
Mean Temperature 34 °F 33 °F  
Max Temperature 44 °F 43 °F 71 °F (1967)
Min Temperature 23 °F 23 °F -21 °F (1905)
Degree Days  
Heating Degree Days 31 32  
Month to date heating degree days 647 440  
Since 1 July heating degree days 4091 3604  
Cooling Degree Days 0 0  
Month to date cooling degree days 0 0  
Year to date cooling degree days 0 0  
Moisture  
Dew Point 25 °F    
Average Humidity 67    
Maximum Humidity 81    
Minimum Humidity 53    
Precipitation  
Precipitation 0.00 in 0.05 in 1.45 in (1911)
Month to date precipitation 0.78 0.64  
Year to date precipitation 1.17 1.71  
Snow  
Snow 0.00 in 0.20 in 5.50 in (1978)
Month to date snowfall 11.3 2.7  
Since 1 July snowfall 22.6 13.5  
Snow Depth 6.00 in    
Sea Level Pressure  
Sea Level Pressure 29.83 in    
Wind  
Wind Speed 11 mph (SW)    
Max Wind Speed 22 mph    
Max Gust Speed 27 mph    
Visibility 8 miles    
Events      
T = Trace of Precipitation, MM = Missing Value Source: NWS Daily Summary

Daily Weather History Graph

Daily Weather History Graph

Search for Another Location

Airport or City:

Trip Planner

Search our weather history database for the weather conditions in past years. The results will help you decide how hot, cold, wet, or windy it might be!

Date:

Astronomy

Feb. 13, 2014 Rise Set
Actual Time 7:13 AM CST 5:53 PM CST
Civil Twilight 6:45 AM CST 6:21 PM CST
Nautical Twilight 6:14 AM CST 6:52 PM CST
Astronomical Twilight 5:43 AM CST 7:23 PM CST
Moon 5:02 PM CST (2/13) 6:06 AM CST (2/13)
Length of Visible Light 11h 35m
Length of Day
10h 40m
Waxing Gibbous, 99% of the Moon is Illuminated
Feb 13
Waxing Gibbous
Feb 14
Full
Feb 22
Last Quarter
Mar 1
New
Mar 8
First Quarter

Hourly Weather History & Observations

Time (CST) Temp. Windchill Dew Point Humidity Pressure Visibility Wind Dir Wind Speed Gust Speed Precip Events Conditions
12:53 AM 24.1 °F 18.2 °F 19.0 °F 81% 29.96 in 7.0 mi South 4.6 mph - N/A   Overcast
1:53 AM 24.1 °F 17.0 °F 18.0 °F 77% 29.96 in 7.0 mi SW 5.8 mph - N/A   Overcast
2:53 AM 24.1 °F 14.4 °F 19.0 °F 81% 29.92 in 6.0 mi South 9.2 mph - N/A   Haze
3:53 AM 26.1 °F 14.5 °F 19.9 °F 78% 29.88 in 6.0 mi South 13.8 mph - N/A   Haze
4:53 AM 27.0 °F 16.7 °F 21.0 °F 78% 29.89 in 6.0 mi SSW 11.5 mph - N/A   Haze
5:53 AM 27.0 °F 15.2 °F 21.9 °F 81% 29.88 in 6.0 mi SSW 15.0 mph - N/A   Haze
6:53 AM 28.0 °F 16.5 °F 23.0 °F 81% 29.86 in 7.0 mi SSW 15.0 mph - N/A   Scattered Clouds
7:53 AM 27.0 °F 15.6 °F 21.9 °F 81% 29.87 in 5.0 mi SSW 13.8 mph - N/A   Haze
8:53 AM 30.0 °F 18.7 °F 24.1 °F 79% 29.86 in 6.0 mi SSW 16.1 mph - N/A   Haze
9:53 AM 32.0 °F 20.5 °F 25.0 °F 75% 29.86 in 10.0 mi SW 18.4 mph - N/A   Partly Cloudy
10:53 AM 35.1 °F 25.2 °F 26.1 °F 70% 29.86 in 10.0 mi WSW 16.1 mph - N/A   Clear
11:53 AM 37.0 °F 28.9 °F 26.1 °F 65% 29.85 in 9.0 mi WSW 12.7 mph - N/A   Clear
12:53 PM 39.0 °F 31.4 °F 27.0 °F 62% 29.81 in 10.0 mi SW 12.7 mph - N/A   Clear
1:53 PM 39.9 °F 32.9 °F 27.0 °F 60% 29.78 in 10.0 mi SW 11.5 mph - N/A   Clear
2:53 PM 42.1 °F 36.6 °F 28.0 °F 58% 29.79 in 10.0 mi SW 9.2 mph - N/A   Clear
3:53 PM 44.1 °F 38.1 °F 28.0 °F 53% 29.79 in 10.0 mi WSW 11.5 mph - N/A   Clear
4:53 PM 43.0 °F 37.2 °F 28.0 °F 56% 29.79 in 10.0 mi SW 10.4 mph - N/A   Clear
5:53 PM 39.9 °F 34.5 °F 28.0 °F 63% 29.79 in 10.0 mi SW 8.1 mph - N/A   Partly Cloudy
6:53 PM 37.9 °F 32.7 °F 28.0 °F 68% 29.79 in 10.0 mi SSW 6.9 mph - N/A   Clear
7:53 PM 36.0 °F 29.0 °F 27.0 °F 70% 29.79 in 10.0 mi SSW 9.2 mph - N/A   Clear
8:53 PM 35.1 °F 28.6 °F 27.0 °F 72% 29.79 in 10.0 mi SSW 8.1 mph - N/A   Clear
9:53 PM 30.9 °F 22.8 °F 25.0 °F 79% 29.77 in 10.0 mi South 9.2 mph - N/A   Partly Cloudy
10:53 PM 32.0 °F 24.2 °F 26.1 °F 79% 29.74 in 9.0 mi South 9.2 mph - N/A   Scattered Clouds
11:53 PM 30.9 °F 23.5 °F 25.0 °F 79% 29.73 in 10.0 mi South 8.1 mph - N/A   Scattered Clouds